"startDT [UTC]","vpos","CH4 [ppm]","stdev(CH4) [ppm]","CO2 [ppm]","stdev(CO2) [ppm]","H2O [ppm]","stdev(H2O)","p_LGR [torr]","T_LGR [C]","mt1_LGR [us]","mt2_LGR [us]","T_ECpre [C]","T_EC1 [C]","T_EC2 [C]","p_inlet [hPa]","p_in [hPa]","p_out [hPa]","T_inlet [C]","RH_inlet [%]","dwpt_inlet [C]","T_vent [C]","RH_vent [%]","dwpt_vent [C]","flow_vent [l min-1]","flow_inlet [l min-1]","dwpt_sample [C]","T_room [C]"
2013-05-19 00:00:00,0.0,1.8984,0.0010,407.51,0.27,2.9,11.1,138.29,20.04,24.62,36.33,0.04,-272.75,-272.75,-31,539,-924,14.2,11.4,-15.5,14.5,11.5,-15.1,5.73,2.46,-29.6,20.3
2013-05-19 00:01:00,0.0,1.8983,0.0008,407.44,0.30,0.4,6.2,138.29,20.04,24.62,36.33,0.04,-272.75,-272.75,-31,539,-924,14.2,11.4,-15.4,14.5,11.6,-15.0,5.73,2.47,-29.6,20.3
2013-05-19 00:02:00,0.0,1.8982,0.0009,407.59,0.26,3.3,14.8,138.29,20.04,24.62,36.32,0.04,-272.75,-272.75,-31,539,-924,14.2,11.7,-15.2,14.5,11.8,-14.8,5.73,2.47,-29.6,20.3
2013-05-19 00:03:00,0.0,1.8982,0.0009,407.60,0.27,1.3,10.0,138.29,20.04,24.62,36.32,0.04,-272.75,-272.75,-31,539,-924,14.2,11.4,-15.5,14.5,11.6,-15.0,5.73,2.47,-29.6,20.2
2013-05-19 00:04:00,0.0,1.8981,0.0009,407.57,0.31,1.2,7.3,138.29,20.04,24.62,36.32,0.04,-272.75,-272.75,-31,539,-924,14.2,11.2,-15.6,14.5,11.4,-15.2,5.73,2.46,-29.6,20.3
2013-05-19 00:05:00,0.0,1.8981,0.0011,407.56,0.26,0.7,5.6,138.29,20.04,24.62,36.33,0.04,-272.75,-272.75,-31,539,-924,14.2,11.1,-15.7,14.5,11.3,-15.3,5.73,2.47,-29.6,20.3
2013-05-19 00:06:00,0.0,1.8980,0.0008,407.56,0.23,0.3,6.3,138.29,20.04,24.62,36.32,0.04,-272.75,-272.75,-31,539,-924,14.2,11.0,-15.8,14.5,11.2,-15.4,5.73,2.46,-29.6,20.4
2013-05-19 00:07:00,0.0,1.8981,0.0009,407.51,0.33,0.9,11.5,138.29,20.04,24.62,36.33,0.04,-272.75,-272.75,-31,539,-924,14.2,11.3,-15.5,14.5,11.5,-15.1,5.73,2.47,-29.6,20.4
2013-05-19 00:08:00,0.0,1.8981,0.0009,407.48,0.27,-0.5,3.1,138.29,20.04,24.62,36.33,0.04,-272.75,-272.75,-31,539,-924,14.2,11.7,-15.1,14.5,11.9,-14.7,5.73,2.47,-29.6,20.4
2013-05-19 00:09:00,0.0,1.8982,0.0012,407.49,0.33,0.9,7.1,138.29,20.03,24.62,36.33,0.04,-272.75,-272.75,-31,539,-924,14.2,11.7,-15.2,14.4,11.8,-14.8,5.73,2.47,-29.6,20.4
2013-05-19 00:10:00,0.0,1.8979,0.0009,407.50,0.25,4.7,14.3,138.29,20.03,24.62,36.32,0.04,-272.75,-272.75,-31,539,-924,14.2,11.5,-15.4,14.4,11.6,-15.0,5.73,2.47,-29.6,20.4
2013-05-19 00:11:00,0.0,1.8978,0.0011,407.48,0.32,4.7,14.5,138.29,20.03,24.62,36.32,0.04,-272.75,-272.75,-31,539,-924,14.2,11.4,-15.4,14.5,11.5,-15.1,5.73,2.47,-29.6,20.4
2013-05-19 00:12:00,0.0,1.8985,0.0011,407.56,0.28,1.2,7.5,138.29,20.03,24.62,36.33,0.04,-272.75,-272.75,-31,539,-924,14.1,11.4,-15.5,14.4,11.5,-15.1,5.73,2.47,-29.6,20.4
2013-05-19 00:13:00,0.0,1.8980,0.0010,407.51,0.30,1.7,10.5,138.29,20.03,24.62,36.32,0.04,-272.75,-272.75,-31,539,-924,14.1,11.4,-15.5,14.4,11.5,-15.1,5.73,2.46,-29.6,20.5
2013-05-19 00:14:00,0.0,1.8980,0.0008,407.46,0.26,0.9,6.6,138.29,20.03,24.62,36.32,0.04,-272.75,-272.75,-31,539,-924,14.1,11.5,-15.4,14.4,11.6,-15.0,5.73,2.46,-29.6,20.5
2013-05-19 00:15:00,0.0,1.8980,0.0009,407.53,0.26,2.4,10.1,138.29,20.03,24.62,36.32,0.04,-272.75,-272.76,-31,539,-924,14.1,11.5,-15.5,14.4,11.6,-15.1,5.73,2.46,-29.6,20.5
2013-05-19 00:16:00,0.0,1.8979,0.0009,407.45,0.26,0.7,8.2,138.29,20.03,24.62,36.33,0.04,-272.75,-272.75,-31,539,-924,14.0,11.3,-15.6,14.4,11.4,-15.2,5.73,2.46,-29.6,20.5
2013-05-19 00:17:00,0.0,1.8981,0.0009,407.47,0.27,3.5,12.4,138.29,20.03,24.62,36.32,0.04,-272.74,-272.75,-31,539,-924,14.0,11.2,-15.7,14.4,11.3,-15.3,5.73,2.46,-29.6,20.5
2013-05-19 00:18:00,0.0,1.8981,0.0009,407.52,0.26,1.3,7.0,138.29,20.03,24.62,36.33,0.04,-272.75,-272.75,-31,539,-924,14.0,11.2,-15.7,14.4,11.3,-15.3,5.73,2.45,-29.6,20.4
2013-05-19 00:19:00,0.0,1.8980,0.0007,407.50,0.28,3.3,12.1,138.29,20.03,24.62,36.33,0.04,-272.75,-272.75,-31,539,-924,14.0,11.5,-15.4,14.4,11.6,-15.0,5.73,2.45,-29.6,20.4
2013-05-19 00:20:00,0.0,1.8982,0.0009,407.52,0.27,3.7,12.7,138.29,20.03,24.62,36.33,0.04,-272.75,-272.75,-31,539,-924,14.0,11.6,-15.4,14.4,11.7,-15.0,5.73,2.45,-29.6,20.4
2013-05-19 00:21:00,0.0,1.8984,0.0009,407.55,0.28,2.7,13.1,138.29,20.03,24.62,36.32,0.04,-272.75,-272.75,-31,539,-924,14.0,11.7,-15.3,14.4,11.8,-14.9,5.73,2.45,-29.6,20.4
2013-05-19 00:22:00,0.0,1.8980,0.0009,407.56,0.26,4.0,13.4,138.29,20.03,24.62,36.32,0.04,-272.76,-272.75,-31,539,-924,14.0,11.4,-15.6,14.4,11.5,-15.2,5.73,2.45,-29.6,20.4
2013-05-19 00:23:00,0.0,1.8984,0.0007,407.45,0.29,1.4,7.2,138.29,20.03,24.62,36.32,0.04,-272.75,-272.75,-31,539,-924,14.0,11.2,-15.8,14.4,11.3,-15.4,5.73,2.45,-29.6,20.3
2013-05-19 00:24:00,0.0,1.8981,0.0008,407.54,0.27,4.3,16.9,138.29,20.03,24.62,36.32,0.04,-272.75,-272.75,-31,539,-924,14.0,11.1,-15.9,14.4,11.2,-15.5,5.73,2.45,-29.6,20.3
2013-05-19 00:25:00,0.0,1.8978,0.0009,407.48,0.23,-0.6,1.8,138.29,20.02,24.62,36.33,0.04,-272.75,-272.75,-31,539,-924,14.0,11.1,-15.9,14.4,11.2,-15.5,5.73,2.46,-29.6,20.3
2013-05-19 00:26:00,0.0,1.8979,0.0009,407.48,0.23,0.9,8.0,138.29,20.03,24.62,36.32,0.04,-272.75,-272.75,-31,539,-924,14.0,11.0,-15.9,14.4,11.1,-15.6,5.73,2.45,-29.6,20.3
2013-05-19 00:27:00,0.0,1.8981,0.0010,407.53,0.30,4.1,13.4,138.29,20.03,24.62,36.32,0.04,-272.75,-272.75,-31,539,-924,14.0,11.2,-15.7,14.4,11.3,-15.4,5.73,2.45,-29.6,20.3
2013-05-19 00:28:00,0.0,1.8984,0.0009,407.46,0.23,2.6,12.7,138.29,20.03,24.62,36.32,0.04,-272.75,-272.75,-31,539,-924,14.0,11.2,-15.7,14.4,11.4,-15.3,5.73,2.46,-29.6,20.3
2013-05-19 00:29:00,0.0,1.8980,0.0008,407.44,0.27,1.0,8.2,138.29,20.03,24.62,36.33,0.04,-272.75,-272.75,-31,539,-924,14.1,11.3,-15.6,14.4,11.4,-15.2,5.73,2.46,-29.6,20.3
2013-05-19 00:30:00,0.0,1.8976,0.0009,407.52,0.29,2.3,10.4,138.29,20.02,24.62,36.32,0.04,-272.74,-272.75,-31,539,-924,14.1,11.2,-15.7,14.4,11.3,-15.3,5.73,2.46,-29.6,20.3
2013-05-19 00:31:00,0.0,1.8983,0.0009,407.55,0.26,2.4,11.8,138.29,20.02,24.62,36.32,0.04,-272.75,-272.75,-31,539,-924,14.1,11.2,-15.8,14.4,11.3,-15.4,5.73,2.46,-29.6,20.3
2013-05-19 00:32:00,0.0,1.8982,0.0009,407.56,0.26,2.8,13.7,138.29,20.02,24.62,36.32,0.04,-272.75,-272.75,-31,539,-924,14.1,10.9,-16.0,14.4,11.1,-15.6,5.73,2.46,-29.6,20.3
2013-05-19 00:33:00,0.0,1.8980,0.0009,407.54,0.27,4.5,13.7,138.29,20.02,24.62,36.32,0.04,-272.75,-272.75,-31,539,-924,14.1,10.8,-16.1,14.4,11.0,-15.7,5.73,2.46,-29.6,20.3
2013-05-19 00:34:00,0.0,1.8978,0.0011,407.54,0.24,2.1,9.8,138.29,20.02,24.62,36.32,0.04,-272.74,-272.75,-31,539,-924,14.1,10.9,-16.0,14.4,11.0,-15.7,5.73,2.46,-29.6,20.3
2013-05-19 00:35:00,0.0,1.8981,0.0009,407.59,0.31,1.9,8.8,138.29,20.02,24.62,36.32,0.04,-272.75,-272.75,-31,539,-924,14.1,10.9,-16.0,14.4,11.1,-15.6,5.73,2.46,-29.6,20.4
2013-05-19 00:36:00,0.0,1.8980,0.0008,407.44,0.29,4.9,14.3,138.29,20.02,24.62,36.32,0.04,-272.75,-272.75,-31,539,-924,14.1,11.0,-15.9,14.4,11.1,-15.5,5.73,2.46,-29.6,20.3
2013-05-19 00:37:00,0.0,1.8987,0.0008,407.44,0.24,3.0,11.0,138.29,20.02,24.61,36.32,0.04,-272.74,-272.75,-31,539,-924,14.1,10.9,-16.0,14.4,11.1,-15.6,5.73,2.46,-29.6,20.3
2013-05-19 00:38:00,0.0,1.8984,0.0009,407.58,0.32,4.1,15.4,138.29,20.02,24.62,36.32,0.04,-272.75,-272.75,-31,539,-924,14.1,10.9,-16.0,14.4,11.0,-15.6,5.73,2.46,-29.6,20.3
2013-05-19 00:39:00,0.0,1.8981,0.0008,407.45,0.26,0.1,4.3,138.29,20.02,24.62,36.32,0.04,-272.75,-272.75,-31,539,-924,14.1,11.0,-15.9,14.4,11.1,-15.5,5.73,2.46,-29.6,20.3
2013-05-19 00:40:00,0.0,1.8981,0.0008,407.50,0.32,1.1,7.2,138.29,20.02,24.62,36.32,0.04,-272.75,-272.75,-31,539,-924,14.1,10.9,-16.0,14.4,11.1,-15.6,5.73,2.46,-29.6,20.2
2013-05-19 00:41:00,0.0,1.8982,0.0009,407.47,0.26,3.6,11.3,138.29,20.01,24.62,36.32,0.04,-272.75,-272.75,-31,539,-924,14.1,11.0,-16.0,14.4,11.1,-15.6,5.73,2.46,-29.6,20.2
2013-05-19 00:42:00,0.0,1.8983,0.0008,407.49,0.30,0.5,6.9,138.29,20.01,24.62,36.32,0.04,-272.75,-272.75,-31,539,-924,14.1,11.0,-15.9,14.4,11.2,-15.5,5.73,2.46,-29.6,20.3
2013-05-19 00:43:00,0.0,1.8984,0.0008,407.58,0.30,3.5,12.3,138.29,20.01,24.62,36.32,0.04,-272.75,-272.75,-31,539,-924,14.2,11.0,-15.9,14.4,11.1,-15.5,5.73,2.46,-29.6,20.2
2013-05-19 00:44:00,0.0,1.8982,0.0009,407.53,0.23,0.1,4.8,138.29,20.01,24.62,36.32,0.04,-272.74,-272.75,-31,539,-924,14.2,11.0,-15.9,14.5,11.1,-15.5,5.73,2.46,-29.6,20.3
2013-05-19 00:45:00,0.0,1.8979,0.0009,407.62,0.21,0.6,6.3,138.28,20.01,24.62,36.32,0.04,-272.75,-272.75,-31,539,-924,14.2,11.1,-15.8,14.5,11.2,-15.4,5.73,2.46,-29.6,20.3
2013-05-19 00:46:00,0.0,1.8985,0.0008,407.42,0.29,0.4,5.3,138.29,20.01,24.62,36.33,0.04,-272.76,-272.75,-31,539,-924,14.2,11.0,-15.9,14.5,11.1,-15.5,5.73,2.46,-29.6,20.3
2013-05-19 00:47:00,0.0,1.8981,0.0009,407.47,0.27,0.7,8.5,138.29,20.01,24.62,36.32,0.04,-272.75,-272.75,-31,539,-924,14.2,10.9,-16.0,14.5,11.0,-15.7,5.73,2.46,-29.6,20.4
2013-05-19 00:48:00,0.0,1.8984,0.0009,407.56,0.28,1.1,7.3,138.29,20.01,24.62,36.32,0.04,-272.75,-272.75,-31,539,-924,14.2,11.1,-15.7,14.5,11.2,-15.4,5.73,2.46,-29.6,20.4
2013-05-19 00:49:00,0.0,1.8980,0.0010,407.59,0.29,3.9,11.1,138.29,20.01,24.62,36.32,0.04,-272.76,-272.75,-31,539,-924,14.2,11.2,-15.7,14.5,11.3,-15.3,5.73,2.46,-29.6,20.3
2013-05-19 00:50:00,0.0,1.8983,0.0009,407.55,0.30,2.5,10.4,138.29,20.01,24.62,36.32,0.04,-272.75,-272.75,-31,539,-924,14.2,11.3,-15.5,14.5,11.4,-15.2,5.73,2.46,-29.6,20.3
2013-05-19 00:51:00,0.0,1.8983,0.0009,407.57,0.29,0.2,4.7,138.29,20.01,24.62,36.32,0.04,-272.75,-272.75,-31,539,-924,14.2,11.4,-15.4,14.5,11.5,-15.0,5.73,2.46,-29.6,20.3
2013-05-19 00:52:00,0.0,1.8982,0.0009,407.62,0.28,1.0,7.3,138.29,20.02,24.62,36.32,0.04,-272.75,-272.75,-31,539,-924,14.2,11.3,-15.5,14.5,11.4,-15.2,5.73,2.46,-29.6,20.4
2013-05-19 00:53:00,0.0,1.8982,0.0010,407.67,0.26,1.9,11.7,138.29,20.02,24.62,36.32,0.04,-272.75,-272.75,-31,540,-924,14.2,11.3,-15.6,14.5,11.4,-15.2,5.73,2.46,-29.6,20.4
2013-05-19 00:54:00,0.0,1.8981,0.0009,407.54,0.32,0.7,6.9,138.29,20.02,24.62,36.33,0.04,-272.75,-272.75,-31,539,-924,14.2,11.2,-15.6,14.5,11.4,-15.2,5.73,2.46,-29.6,20.4
2013-05-19 00:55:00,0.0,1.8986,0.0011,407.57,0.29,1.7,8.6,138.29,20.02,24.62,36.32,0.04,-272.75,-272.75,-31,540,-924,14.2,11.2,-15.6,14.5,11.4,-15.2,5.73,2.46,-29.6,20.4
2013-05-19 00:56:00,0.0,1.8984,0.0009,407.55,0.30,1.3,9.0,138.29,20.02,24.62,36.32,0.04,-272.75,-272.75,-31,540,-924,14.2,11.3,-15.5,14.5,11.4,-15.2,5.73,2.46,-29.6,20.2
2013-05-19 00:57:00,0.0,1.8982,0.0009,407.60,0.33,1.7,7.6,138.29,20.02,24.62,36.32,0.04,-272.75,-272.75,-31,539,-924,14.2,11.3,-15.5,14.5,11.4,-15.2,5.73,2.46,-29.6,20.3
2013-05-19 00:58:00,0.0,1.8984,0.0010,407.56,0.29,4.8,15.2,138.29,20.02,24.62,36.32,0.04,-272.75,-272.75,-32,540,-924,14.2,11.2,-15.6,14.5,11.4,-15.2,5.73,2.46,-29.6,20.3
2013-05-19 00:59:00,0.0,1.8982,0.0009,407.64,0.25,4.0,13.6,138.29,20.02,24.62,36.32,0.04,-272.75,-272.75,-31,539,-924,14.2,11.1,-15.8,14.5,11.2,-15.4,5.73,2.46,-29.6,20.3
2013-05-19 01:00:00,0.0,1.8985,0.0009,407.58,0.25,0.5,4.6,138.29,20.02,24.62,36.32,0.04,-272.75,-272.75,-31,539,-924,14.2,10.9,-15.9,14.5,11.1,-15.5,5.73,2.46,-29.6,20.2
2013-05-19 01:01:00,0.0,1.8986,0.0011,407.52,0.26,1.3,7.2,138.29,20.02,24.62,36.32,0.04,-272.75,-272.74,-31,540,-924,14.2,11.0,-15.8,14.5,11.2,-15.4,5.73,2.46,-29.6,20.3
2013-05-19 01:02:00,0.0,1.8982,0.0008,407.57,0.27,0.7,6.3,138.29,20.02,24.62,36.32,0.04,-272.76,-272.75,-31,540,-924,14.3,10.9,-15.9,14.5,11.0,-15.5,5.73,2.46,-29.6,20.3
2013-05-19 01:03:00,0.0,1.8982,0.0009,407.60,0.28,1.9,8.1,138.29,20.02,24.62,36.32,0.04,-272.75,-272.75,-31,539,-924,14.3,10.9,-15.9,14.5,11.1,-15.5,5.73,2.46,-29.6,20.3
2013-05-19 01:04:00,0.0,1.8984,0.0009,407.58,0.27,0.7,5.4,138.28,20.02,24.62,36.32,0.04,-272.75,-272.74,-31,540,-924,14.2,11.1,-15.7,14.5,11.2,-15.3,5.73,2.46,-29.6,20.3
2013-05-19 01:05:00,0.0,1.8982,0.0008,407.56,0.28,3.4,13.0,138.29,20.01,24.62,36.32,0.04,-272.75,-272.75,-31,540,-924,14.2,11.2,-15.6,14.5,11.4,-15.2,5.73,2.46,-29.6,20.3
2013-05-19 01:06:00,0.0,1.8985,0.0009,407.62,0.29,2.2,9.9,138.29,20.01,24.62,36.31,0.04,-272.75,-272.76,-31,540,-924,14.3,11.2,-15.6,14.5,11.4,-15.2,5.73,2.46,-29.6,20.3
2013-05-19 01:07:00,0.0,1.8982,0.0009,407.61,0.24,2.0,12.4,138.29,20.01,24.62,36.32,0.04,-272.75,-272.75,-31,540,-924,14.3,11.2,-15.6,14.5,11.4,-15.2,5.73,2.46,-29.6,20.4
2013-05-19 01:08:00,0.0,1.8981,0.0008,407.49,0.25,3.3,16.2,138.28,20.01,24.62,36.32,0.04,-272.74,-272.75,-31,540,-924,14.3,11.1,-15.7,14.6,11.2,-15.3,5.73,2.45,-29.6,20.4
2013-05-19 01:09:00,0.0,1.8982,0.0009,407.53,0.27,3.9,12.6,138.29,20.01,24.62,36.33,0.04,-272.75,-272.75,-31,540,-924,14.3,11.0,-15.8,14.6,11.2,-15.4,5.73,2.46,-29.6,20.3
2013-05-19 01:10:00,0.0,1.8982,0.0007,407.64,0.26,4.2,12.6,138.29,20.01,24.62,36.32,0.04,-272.75,-272.75,-31,540,-924,14.3,11.1,-15.7,14.6,11.3,-15.3,5.73,2.46,-29.6,20.3
2013-05-19 01:11:00,0.0,1.8985,0.0008,407.50,0.26,3.9,15.6,138.29,20.01,24.62,36.33,0.04,-272.74,-272.75,-31,540,-924,14.3,11.4,-15.3,14.6,11.6,-15.0,5.73,2.46,-29.5,20.4
2013-05-19 01:12:00,0.0,1.8984,0.0010,407.58,0.25,3.2,12.2,138.29,20.01,24.62,36.32,0.04,-272.75,-272.75,-31,540,-924,14.3,11.4,-15.3,14.6,11.6,-14.9,5.73,2.46,-29.5,20.4
2013-05-19 01:13:00,0.0,1.8983,0.0010,407.61,0.26,4.3,14.5,138.28,20.02,24.62,36.32,0.04,-272.75,-272.75,-31,540,-924,14.3,11.5,-15.3,14.6,11.6,-14.9,5.73,2.46,-29.5,20.3
2013-05-19 01:14:00,0.0,1.8983,0.0009,407.52,0.28,3.3,11.0,138.29,20.02,24.62,36.32,0.04,-272.75,-272.75,-32,540,-924,14.3,11.2,-15.5,14.6,11.4,-15.1,5.73,2.46,-29.5,20.3
2013-05-19 01:15:00,0.0,1.8984,0.0008,407.54,0.27,3.0,13.8,138.29,20.02,24.62,36.32,0.04,-272.75,-272.75,-31,540,-924,14.3,11.0,-15.8,14.6,11.2,-15.4,5.73,2.46,-29.5,20.3
2013-05-19 01:16:00,0.0,1.8981,0.0009,407.48,0.25,1.7,9.7,138.29,20.02,24.62,36.33,0.04,-272.75,-272.75,-31,540,-924,14.3,11.0,-15.8,14.6,11.1,-15.4,5.73,2.45,-29.5,20.2
2013-05-19 01:17:00,0.0,1.8983,0.0009,407.59,0.24,1.5,10.4,138.29,20.02,24.62,36.32,0.04,-272.75,-272.75,-31,540,-924,14.3,11.1,-15.7,14.6,11.2,-15.3,5.73,2.46,-29.6,20.2
2013-05-19 01:18:00,0.0,1.8981,0.0008,407.54,0.21,1.7,10.3,138.29,20.02,24.62,36.32,0.04,-272.75,-272.75,-31,540,-924,14.3,11.2,-15.6,14.6,11.3,-15.2,5.73,2.46,-29.5,20.2
2013-05-19 01:19:00,0.0,1.8983,0.0012,407.52,0.26,2.0,8.4,138.29,20.02,24.62,36.32,0.04,-272.75,-272.75,-31,540,-924,14.3,11.3,-15.5,14.6,11.4,-15.1,5.73,2.46,-29.6,20.3
2013-05-19 01:20:00,0.0,1.8983,0.0008,407.60,0.27,1.6,9.6,138.29,20.02,24.62,36.32,0.04,-272.75,-272.75,-31,540,-924,14.3,11.1,-15.6,14.6,11.3,-15.2,5.73,2.46,-29.5,20.3
2013-05-19 01:21:00,0.0,1.8984,0.0009,407.64,0.32,5.3,16.4,138.29,20.02,24.62,36.32,0.04,-272.74,-272.74,-31,540,-924,14.3,10.9,-15.8,14.6,11.1,-15.5,5.73,2.46,-29.5,20.3
2013-05-19 01:22:00,0.0,1.8981,0.0009,407.56,0.27,4.7,14.4,138.29,20.02,24.62,36.32,0.04,-272.75,-272.75,-31,540,-924,14.3,11.0,-15.7,14.6,11.2,-15.4,5.73,2.46,-29.5,20.3
2013-05-19 01:23:00,0.0,1.8982,0.0008,407.59,0.28,1.5,6.8,138.29,20.02,24.62,36.32,0.04,-272.75,-272.75,-32,540,-924,14.3,11.2,-15.6,14.6,11.3,-15.2,5.73,2.46,-29.6,20.3
2013-05-19 01:24:00,0.0,1.8985,0.0010,407.57,0.27,4.9,15.9,138.29,20.02,24.62,36.33,0.04,-272.75,-272.75,-31,540,-924,14.3,11.3,-15.4,14.6,11.4,-15.1,5.73,2.46,-29.6,20.3
2013-05-19 01:25:00,0.0,1.8983,0.0009,407.50,0.31,5.3,14.4,138.29,20.02,24.62,36.33,0.04,-272.75,-272.75,-31,540,-924,14.3,11.2,-15.5,14.6,11.4,-15.1,5.73,2.46,-29.5,20.4
2013-05-19 01:26:00,0.0,1.8981,0.0008,407.67,0.28,4.1,12.6,138.29,20.02,24.62,36.32,0.04,-272.75,-272.75,-31,540,-924,14.4,11.2,-15.5,14.6,11.4,-15.2,5.73,2.46,-29.5,20.4
2013-05-19 01:27:00,0.0,1.8981,0.0008,407.54,0.30,2.8,11.5,138.29,20.02,24.62,36.33,0.04,-272.75,-272.75,-31,540,-924,14.4,11.3,-15.4,14.6,11.5,-15.0,5.73,2.46,-29.5,20.3
2013-05-19 01:28:00,0.0,1.8985,0.0010,407.54,0.27,1.3,8.4,138.29,20.02,24.62,36.33,0.04,-272.75,-272.75,-31,540,-924,14.4,11.6,-15.1,14.6,11.8,-14.7,5.73,2.46,-29.5,20.3
2013-05-19 01:29:00,0.0,1.8986,0.0009,407.54,0.25,3.7,13.9,138.29,20.02,24.62,36.32,0.04,-272.75,-272.75,-32,540,-924,14.4,11.9,-14.7,14.6,12.1,-14.4,5.73,2.47,-29.5,20.4
2013-05-19 01:30:00,0.0,1.8980,0.0009,407.51,0.28,1.8,10.0,138.28,20.02,24.62,36.33,0.04,-272.75,-272.75,-31,540,-924,14.4,12.1,-14.6,14.6,12.3,-14.2,5.73,2.46,-29.5,20.4
2013-05-19 01:31:00,0.0,1.8983,0.0008,407.56,0.27,2.9,11.1,138.29,20.02,24.62,36.32,0.04,-272.75,-272.74,-32,540,-924,14.4,12.2,-14.5,14.6,12.4,-14.1,5.73,2.46,-29.5,20.4
2013-05-19 01:32:00,0.0,1.8982,0.0010,407.65,0.27,4.5,11.8,138.29,20.02,24.62,36.32,0.04,-272.75,-272.75,-31,540,-924,14.4,12.4,-14.3,14.6,12.5,-13.9,5.73,2.46,-29.5,20.4
2013-05-19 01:33:00,0.0,1.8980,0.0008,407.68,0.29,2.3,9.0,138.29,20.02,24.62,36.32,0.04,-272.75,-272.75,-32,540,-924,14.3,12.4,-14.3,14.6,12.6,-13.9,5.73,2.47,-29.5,20.4
2013-05-19 01:34:00,0.0,1.8982,0.0009,407.61,0.30,1.6,9.0,138.28,20.02,24.62,36.32,0.04,-272.75,-272.75,-32,540,-924,14.4,12.6,-14.1,14.6,12.7,-13.8,5.73,2.46,-29.5,20.4
2013-05-19 01:35:00,0.0,1.8981,0.0009,407.55,0.21,4.6,13.9,138.29,20.03,24.62,36.32,0.04,-272.75,-272.75,-32,540,-924,14.4,12.7,-14.0,14.6,12.8,-13.6,5.73,2.47,-29.5,20.4
2013-05-19 01:36:00,0.0,1.8982,0.0009,407.65,0.25,0.3,5.6,138.29,20.03,24.62,36.32,0.04,-272.75,-272.75,-32,540,-924,14.4,12.6,-14.1,14.6,12.8,-13.7,5.73,2.47,-29.5,20.4
2013-05-19 01:37:00,0.0,1.8983,0.0009,407.60,0.27,1.2,8.2,138.29,20.03,24.62,36.32,0.04,-272.75,-272.75,-32,540,-924,14.4,12.6,-14.1,14.6,12.8,-13.7,5.73,2.46,-29.5,20.4
2013-05-19 01:38:00,0.0,1.8983,0.0010,407.51,0.28,2.1,8.9,138.29,20.03,24.62,36.32,0.04,-272.74,-272.74,-32,540,-924,14.4,12.4,-14.3,14.6,12.6,-13.9,5.73,2.46,-29.5,20.4
2013-05-19 01:39:00,0.0,1.8985,0.0008,407.65,0.27,3.7,11.5,138.28,20.03,24.61,36.32,0.04,-272.75,-272.75,-32,540,-924,14.4,12.3,-14.4,14.7,12.4,-14.0,5.73,2.47,-29.5,20.3
2013-05-19 01:40:00,0.0,1.8979,0.0010,407.59,0.27,4.2,13.6,138.29,20.03,24.62,36.32,0.04,-272.75,-272.75,-32,540,-924,14.4,12.3,-14.4,14.7,12.4,-14.0,5.73,2.46,-29.5,20.4
2013-05-19 01:41:00,0.0,1.8982,0.0008,407.64,0.27,4.3,11.1,138.29,20.03,24.62,36.32,0.04,-272.74,-272.74,-32,540,-924,14.4,12.2,-14.4,14.7,12.4,-14.0,5.73,2.47,-29.5,20.4
2013-05-19 01:42:00,0.0,1.8980,0.0009,407.61,0.28,3.4,11.6,138.29,20.03,24.62,36.33,0.04,-272.75,-272.74,-32,540,-924,14.4,12.2,-14.5,14.7,12.4,-14.1,5.73,2.46,-29.5,20.3
2013-05-19 01:43:00,0.0,1.8980,0.0011,407.58,0.28,5.7,21.0,138.28,20.03,24.62,36.32,0.04,-272.75,-272.75,-32,540,-924,14.4,12.0,-14.6,14.7,12.2,-14.3,5.73,2.46,-29.5,20.3
2013-05-19 01:44:00,0.0,1.8984,0.0009,407.55,0.31,4.9,15.8,138.29,20.03,24.62,36.32,0.04,-272.74,-272.75,-32,540,-924,14.4,11.9,-14.7,14.7,12.1,-14.3,5.73,2.46,-29.5,20.3
2013-05-19 01:45:00,0.0,1.8978,0.0008,407.60,0.21,5.7,15.8,138.29,20.03,24.62,36.32,0.04,-272.75,-272.74,-32,540,-924,14.4,12.1,-14.5,14.7,12.3,-14.2,5.73,2.46,-29.5,20.3
2013-05-19 01:46:00,0.0,1.8983,0.0009,407.52,0.28,3.7,13.8,138.29,20.03,24.62,36.33,0.04,-272.74,-272.75,-32,540,-924,14.4,12.2,-14.4,14.7,12.4,-14.1,5.73,2.46,-29.5,20.4
2013-05-19 01:47:00,0.0,1.8982,0.0009,407.58,0.34,3.8,14.5,138.29,20.03,24.62,36.32,0.04,-272.75,-272.75,-32,540,-924,14.4,12.3,-14.4,14.6,12.4,-14.0,5.73,2.45,-29.5,20.4
2013-05-19 01:48:00,0.0,1.8982,0.0007,407.57,0.29,3.2,11.2,138.29,20.03,24.62,36.32,0.04,-272.74,-272.75,-32,540,-924,14.4,12.0,-14.6,14.7,12.2,-14.2,5.73,2.46,-29.5,20.3
2013-05-19 01:49:00,0.0,1.8981,0.0009,407.68,0.31,3.5,11.7,138.29,20.03,24.62,36.32,0.04,-272.75,-272.75,-32,540,-924,14.4,12.0,-14.7,14.6,12.1,-14.3,5.73,2.46,-29.5,20.3
2013-05-19 01:50:00,0.0,1.8983,0.0010,407.53,0.30,2.6,10.7,138.29,20.03,24.62,36.33,0.04,-272.75,-272.75,-31,540,-924,14.4,12.0,-14.6,14.7,12.2,-14.3,5.73,2.46,-29.5,20.4
2013-05-19 01:51:00,0.0,1.8985,0.0009,407.70,0.28,1.6,7.9,138.29,20.03,24.62,36.32,0.04,-272.75,-272.75,-32,540,-924,14.4,12.2,-14.5,14.7,12.3,-14.1,5.73,2.46,-29.5,20.3
2013-05-19 01:52:00,0.0,1.8984,0.0009,407.60,0.28,3.9,13.8,138.29,20.03,24.62,36.33,0.04,-272.74,-272.75,-32,540,-924,14.4,12.2,-14.4,14.7,12.4,-14.1,5.73,2.46,-29.5,20.3
2013-05-19 01:53:00,0.0,1.8984,0.0008,407.74,0.27,2.7,11.0,138.29,20.04,24.62,36.32,0.04,-272.75,-272.76,-32,540,-924,14.4,12.3,-14.4,14.7,12.5,-14.0,5.73,2.47,-29.5,20.4
2013-05-19 01:54:00,0.0,1.8983,0.0009,407.61,0.30,7.9,23.0,138.29,20.03,24.62,36.32,0.04,-272.75,-272.75,-32,540,-924,14.4,12.0,-14.6,14.7,12.2,-14.2,5.73,2.46,-29.5,20.3
2013-05-19 01:55:00,0.0,1.8979,0.0009,407.54,0.24,4.9,15.4,138.29,20.03,24.62,36.33,0.04,-272.75,-272.75,-32,540,-924,14.4,11.7,-14.9,14.6,11.9,-14.5,5.73,2.46,-29.5,20.4
2013-05-19 01:56:00,0.0,1.8986,0.0009,407.64,0.24,7.0,15.2,138.29,20.04,24.62,36.32,0.04,-272.75,-272.75,-32,540,-924,14.4,11.7,-14.9,14.7,11.9,-14.6,5.73,2.46,-29.5,20.4
2013-05-19 01:57:00,0.0,1.8982,0.0009,407.60,0.27,1.4,9.9,138.29,20.04,24.62,36.32,0.04,-272.75,-272.75,-32,540,-924,14.4,11.6,-15.1,14.7,11.7,-14.7,5.73,2.46,-29.5,20.4
2013-05-19 01:58:00,0.0,1.8981,0.0009,407.59,0.33,5.8,17.8,138.29,20.04,24.62,36.32,0.04,-272.76,-272.75,-32,540,-924,14.4,11.7,-15.0,14.7,11.8,-14.6,5.73,2.46,-29.5,20.4
2013-05-19 01:59:00,0.0,1.8982,0.0008,407.64,0.29,2.5,9.5,138.28,20.04,24.62,36.32,0.04,-272.75,-272.75,-32,540,-924,14.4,11.7,-14.9,14.7,11.8,-14.6,5.73,2.46,-29.5,20.4
2013-05-19 02:00:00,0.0,1.8981,0.0008,407.68,0.28,3.3,11.7,138.29,20.04,24.62,36.32,0.04,-272.75,-272.75,-32,540,-924,14.4,11.5,-15.2,14.7,11.6,-14.8,5.73,2.46,-29.5,20.4
2013-05-19 02:01:00,0.0,1.8982,0.0009,407.69,0.24,0.0,3.6,138.29,20.04,24.62,36.32,0.04,-272.75,-272.75,-32,540,-924,14.4,11.5,-15.2,14.7,11.7,-14.8,5.73,2.46,-29.5,20.3
2013-05-19 02:02:00,0.0,1.8979,0.0010,407.56,0.24,5.2,17.8,138.29,20.04,24.62,36.33,0.04,-272.75,-272.75,-32,540,-924,14.4,11.5,-15.1,14.7,11.7,-14.7,5.73,2.46,-29.5,20.4
2013-05-19 02:03:00,0.0,1.8978,0.0010,407.62,0.31,1.7,8.1,138.28,20.04,24.62,36.33,0.04,-272.75,-272.75,-32,540,-924,14.4,11.7,-15.0,14.7,11.8,-14.6,5.73,2.46,-29.5,20.4
2013-05-19 02:04:00,0.0,1.8981,0.0010,407.67,0.26,1.7,9.5,138.29,20.04,24.62,36.32,0.04,-272.74,-272.75,-32,540,-924,14.4,11.6,-15.1,14.7,11.8,-14.7,5.73,2.46,-29.5,20.4
2013-05-19 02:05:00,0.0,1.8983,0.0009,407.62,0.21,3.6,15.1,138.29,20.04,24.62,36.32,0.04,-272.75,-272.75,-32,540,-924,14.4,11.5,-15.1,14.7,11.7,-14.7,5.73,2.46,-29.5,20.4
2013-05-19 02:06:00,0.0,1.8980,0.0009,407.58,0.29,4.5,14.0,138.29,20.04,24.62,36.32,0.04,-272.75,-272.75,-32,540,-924,14.4,11.4,-15.2,14.7,11.6,-14.8,5.73,2.46,-29.5,20.4
2013-05-19 02:07:00,0.0,1.8979,0.0009,407.70,0.23,2.6,10.1,138.29,20.04,24.62,36.31,0.04,-272.75,-272.76,-32,540,-924,14.4,11.4,-15.2,14.7,11.6,-14.8,5.73,2.46,-29.5,20.4
2013-05-19 02:08:00,0.0,1.8980,0.0009,407.59,0.30,4.5,14.5,138.28,20.04,24.62,36.33,0.04,-272.75,-272.75,-32,540,-924,14.4,11.4,-15.3,14.7,11.5,-14.9,5.73,2.45,-29.5,20.4
2013-05-19 02:09:00,0.0,1.8978,0.0009,407.58,0.29,5.8,18.4,138.29,20.04,24.62,36.32,0.04,-272.75,-272.75,-32,540,-924,14.4,11.3,-15.4,14.7,11.4,-15.0,5.73,2.46,-29.5,20.4
2013-05-19 02:10:00,0.0,1.8982,0.0007,407.62,0.24,3.7,16.0,138.29,20.04,24.61,36.32,0.04,-272.75,-272.75,-32,540,-924,14.4,11.2,-15.4,14.7,11.4,-15.1,5.73,2.45,-29.5,20.4
2013-05-19 02:11:00,0.0,1.8979,0.0008,407.61,0.23,4.5,15.8,138.29,20.04,24.62,36.32,0.04,-272.75,-272.74,-32,540,-924,14.4,11.2,-15.5,14.7,11.3,-15.1,5.73,2.46,-29.5,20.4
2013-05-19 02:12:00,0.0,1.8980,0.0008,407.54,0.28,4.5,18.3,138.29,20.04,24.62,36.32,0.04,-272.75,-272.75,-32,540,-924,14.4,11.1,-15.6,14.7,11.2,-15.2,5.73,2.45,-29.5,20.4
2013-05-19 02:13:00,0.0,1.8982,0.0008,407.72,0.30,2.5,11.8,138.28,20.04,24.62,36.32,0.04,-272.75,-272.75,-32,540,-924,14.4,11.2,-15.4,14.7,11.4,-15.1,5.73,2.46,-29.5,20.4
2013-05-19 02:14:00,0.0,1.8981,0.0011,407.58,0.24,1.8,9.2,138.29,20.04,24.62,36.32,0.04,-272.75,-272.75,-32,540,-924,14.4,11.2,-15.5,14.7,11.3,-15.1,5.73,2.46,-29.5,20.4
2013-05-19 02:15:00,0.0,1.8983,0.0009,407.54,0.28,5.1,15.4,138.29,20.04,24.62,36.32,0.04,-272.74,-272.75,-32,540,-924,14.4,11.1,-15.6,14.7,11.2,-15.2,5.73,2.45,-29.5,20.4
2013-05-19 02:16:00,0.0,1.8982,0.0009,407.66,0.20,3.6,10.2,138.28,20.05,24.62,36.32,0.04,-272.75,-272.75,-32,540,-924,14.4,11.1,-15.5,14.7,11.3,-15.1,5.73,2.45,-29.5,20.4
2013-05-19 02:17:00,0.0,1.8982,0.0008,407.66,0.26,2.8,16.1,138.28,20.05,24.62,36.32,0.04,-272.75,-272.75,-32,540,-924,14.4,11.2,-15.4,14.7,11.4,-15.0,5.73,2.45,-29.5,20.4